owner,sensor,date,latitude,longitude,vertical_datum,mass_concentration_of_oxygen_in_sea_water,qcFlag 
SCCF RECON,ioos:station:SCCF:11:1,2011-03-04T20:00:00Z,26.4679,-82.0631,1.856,7.27,1111122 
SCCF RECON,ioos:station:SCCF:11:1,2011-03-04T21:00:00Z,26.4679,-82.0631,1.75,7.56,1111122 
SCCF RECON,ioos:station:SCCF:11:1,2011-03-04T22:00:00Z,26.4679,-82.0631,1.67,7.62,1111122 
SCCF RECON,ioos:station:SCCF:11:1,2011-03-04T23:00:00Z,26.4679,-82.0631,1.621,7.8,1111122 
SCCF RECON,ioos:station:SCCF:11:1,2011-03-05T00:00:00Z,26.4679,-82.0631,1.582,7.54,1111122 
SCCF RECON,ioos:station:SCCF:11:1,2011-03-05T01:00:00Z,26.4679,-82.0631,1.63,7.46,1111122 
SCCF RECON,ioos:station:SCCF:11:1,2011-03-05T02:00:00Z,26.4679,-82.0631,1.74,7.31,1111122 
SCCF RECON,ioos:station:SCCF:11:1,2011-03-05T03:00:00Z,26.4679,-82.0631,1.87,6.99,1111122 
SCCF RECON,ioos:station:SCCF:11:1,2011-03-05T04:00:00Z,26.4679,-82.0631,1.98,6.98,1111122 
SCCF RECON,ioos:station:SCCF:11:1,2011-03-05T05:00:00Z,26.4679,-82.0631,2.059,6.97,1111122 
SCCF RECON,ioos:station:SCCF:11:1,2011-03-05T06:00:00Z,26.4679,-82.0631,2.08,6.85,1111122 
SCCF RECON,ioos:station:SCCF:11:1,2011-03-05T07:00:00Z,26.4679,-82.0631,2.02,6.81,1111122 
SCCF RECON,ioos:station:SCCF:11:1,2011-03-05T08:00:00Z,26.4679,-82.0631,1.897,6.71,1111122 
SCCF RECON,ioos:station:SCCF:11:1,2011-03-05T09:00:00Z,26.4679,-82.0631,1.77,6.46,1111122 
SCCF RECON,ioos:station:SCCF:11:1,2011-03-05T10:00:00Z,26.4679,-82.0631,1.672,6.35,1111122 
SCCF RECON,ioos:station:SCCF:11:1,2011-03-05T11:00:00Z,26.4679,-82.0631,1.579,6.32,1111122 
SCCF RECON,ioos:station:SCCF:11:1,2011-03-05T12:00:00Z,26.4679,-82.0631,1.488,6.13,1111122 
SCCF RECON,ioos:station:SCCF:11:1,2011-03-05T13:00:00Z,26.4679,-82.0631,1.47,6.12,1111122 
SCCF RECON,ioos:station:SCCF:11:1,2011-03-05T14:00:00Z,26.4679,-82.0631,1.55,6.48,1111122 
SCCF RECON,ioos:station:SCCF:11:1,2011-03-05T15:00:00Z,26.4679,-82.0631,1.692,6.59,1111122 
SCCF RECON,ioos:station:SCCF:11:1,2011-03-05T16:00:00Z,26.4679,-82.0631,1.831,6.81,1111122 
SCCF RECON,ioos:station:SCCF:11:1,2011-03-05T17:00:00Z,26.4679,-82.0631,1.94,7.0,1111122 
SCCF RECON,ioos:station:SCCF:11:1,2011-03-05T18:00:00Z,26.4679,-82.0631,2.01,7.07,1111122 
SCCF RECON,ioos:station:SCCF:11:1,2011-03-05T19:00:00Z,26.4679,-82.0631,2.005,7.0,1111122 
SCCF RECON,ioos:station:SCCF:11:1,2011-03-05T20:00:00Z,26.4679,-82.0631,1.9,7.78,1111122 
SCCF RECON,ioos:station:SCCF:11:1,2011-03-05T21:00:00Z,26.4679,-82.0631,1.777,7.79,1111122 
SCCF RECON,ioos:station:SCCF:11:1,2011-03-05T22:00:00Z,26.4679,-82.0631,1.67,7.81,1111122 
SCCF RECON,ioos:station:SCCF:11:1,2011-03-05T23:00:00Z,26.4679,-82.0631,1.59,7.72,1111122 
SCCF RECON,ioos:station:SCCF:11:1,2011-03-06T00:00:00Z,26.4679,-82.0631,1.51,7.61,1111122 
SCCF RECON,ioos:station:SCCF:11:1,2011-03-06T01:00:00Z,26.4679,-82.0631,1.51,7.48,1111122 
SCCF RECON,ioos:station:SCCF:11:1,2011-03-06T02:00:00Z,26.4679,-82.0631,1.6,7.17,1111122 
SCCF RECON,ioos:station:SCCF:11:1,2011-03-06T03:00:00Z,26.4679,-82.0631,1.75,7.12,1111122 
SCCF RECON,ioos:station:SCCF:11:1,2011-03-06T04:00:00Z,26.4679,-82.0631,1.885,6.91,1111122 
SCCF RECON,ioos:station:SCCF:11:1,2011-03-06T05:00:00Z,26.4679,-82.0631,1.99,6.92,1111122 
SCCF RECON,ioos:station:SCCF:11:1,2011-03-06T06:00:00Z,26.4679,-82.0631,2.04,6.82,1111122 
SCCF RECON,ioos:station:SCCF:11:1,2011-03-06T07:00:00Z,26.4679,-82.0631,2.03,6.69,1111122 
SCCF RECON,ioos:station:SCCF:11:1,2011-03-06T08:00:00Z,26.4679,-82.0631,1.957,6.77,1111122 
SCCF RECON,ioos:station:SCCF:11:1,2011-03-06T09:00:00Z,26.4679,-82.0631,1.84,6.72,1111122 
SCCF RECON,ioos:station:SCCF:11:1,2011-03-06T10:00:00Z,26.4679,-82.0631,1.72,6.29,1111122 
SCCF RECON,ioos:station:SCCF:11:1,2011-03-06T11:00:00Z,26.4679,-82.0631,1.618,6.12,1111122 
SCCF RECON,ioos:station:SCCF:11:1,2011-03-06T12:00:00Z,26.4679,-82.0631,1.55,6.07,1111122 
SCCF RECON,ioos:station:SCCF:11:1,2011-03-06T13:00:00Z,26.4679,-82.0631,1.52,5.99,1111122 
SCCF RECON,ioos:station:SCCF:11:1,2011-03-06T14:00:00Z,26.4679,-82.0631,1.54,5.98,1111122 
SCCF RECON,ioos:station:SCCF:11:1,2011-03-06T15:00:00Z,26.4679,-82.0631,1.617,6.17,1111122 
SCCF RECON,ioos:station:SCCF:11:1,2011-03-06T16:00:00Z,26.4679,-82.0631,1.75,6.48,1111122 
SCCF RECON,ioos:station:SCCF:11:1,2011-03-06T17:00:00Z,26.4679,-82.0631,1.903,6.67,1111122 
SCCF RECON,ioos:station:SCCF:11:1,2011-03-06T18:00:00Z,26.4679,-82.0631,2.001,6.53,1111122 
SCCF RECON,ioos:station:SCCF:11:1,2011-03-06T19:00:00Z,26.4679,-82.0631,2.01,6.64,1111122 
SCCF RECON,ioos:station:SCCF:11:1,2011-03-06T20:00:00Z,26.4679,-82.0631,1.906,6.73,1111122 
SCCF RECON,ioos:station:SCCF:11:1,2011-03-06T21:00:00Z,26.4679,-82.0631,1.788,7.2,1111122 
SCCF RECON,ioos:station:SCCF:11:1,2011-03-06T22:00:00Z,26.4679,-82.0631,1.66,7.18,1111122 
SCCF RECON,ioos:station:SCCF:11:1,2011-03-06T23:00:00Z,26.4679,-82.0631,1.559,7.11,1111122 
SCCF RECON,ioos:station:SCCF:11:1,2011-03-07T00:00:00Z,26.4679,-82.0631,1.484,7.03,1111122 
SCCF RECON,ioos:station:SCCF:11:1,2011-03-07T01:00:00Z,26.4679,-82.0631,1.44,6.89,1111122 
SCCF RECON,ioos:station:SCCF:11:1,2011-03-07T02:00:00Z,26.4679,-82.0631,1.43,6.79,1111122 
SCCF RECON,ioos:station:SCCF:11:1,2011-03-07T03:00:00Z,26.4679,-82.0631,1.48,6.99,1111122 
SCCF RECON,ioos:station:SCCF:11:1,2011-03-07T04:00:00Z,26.4679,-82.0631,1.599,6.59,1111122 
SCCF RECON,ioos:station:SCCF:11:1,2011-03-07T05:00:00Z,26.4679,-82.0631,1.745,6.57,1111122 
SCCF RECON,ioos:station:SCCF:11:1,2011-03-07T06:00:00Z,26.4679,-82.0631,1.85,6.76,1111122 
SCCF RECON,ioos:station:SCCF:11:1,2011-03-07T07:00:00Z,26.4679,-82.0631,1.9,6.76,1111122 
SCCF RECON,ioos:station:SCCF:11:1,2011-03-07T08:00:00Z,26.4679,-82.0631,1.86,6.69,1111122 
SCCF RECON,ioos:station:SCCF:11:1,2011-03-07T09:00:00Z,26.4679,-82.0631,1.764,6.52,1111122 
SCCF RECON,ioos:station:SCCF:11:1,2011-03-07T10:00:00Z,26.4679,-82.0631,1.657,6.3,1111122 
SCCF RECON,ioos:station:SCCF:11:1,2011-03-07T11:00:00Z,26.4679,-82.0631,1.579,6.1,1111122 
SCCF RECON,ioos:station:SCCF:11:1,2011-03-07T12:00:00Z,26.4679,-82.0631,1.52,6.1,1111122 
SCCF RECON,ioos:station:SCCF:11:1,2011-03-07T13:00:00Z,26.4679,-82.0631,1.45,6.08,1111122 
SCCF RECON,ioos:station:SCCF:11:1,2011-03-07T14:00:00Z,26.4679,-82.0631,1.47,6.1,1111122 
SCCF RECON,ioos:station:SCCF:11:1,2011-03-07T15:00:00Z,26.4679,-82.0631,1.57,6.34,1111122 
SCCF RECON,ioos:station:SCCF:11:1,2011-03-07T16:00:00Z,26.4679,-82.0631,1.712,6.45,1111122 
SCCF RECON,ioos:station:SCCF:11:1,2011-03-07T17:00:00Z,26.4679,-82.0631,1.83,6.79,1111122 
SCCF RECON,ioos:station:SCCF:11:1,2011-03-07T18:00:00Z,26.4679,-82.0631,1.925,6.77,1111122 
SCCF RECON,ioos:station:SCCF:11:1,2011-03-07T19:00:00Z,26.4679,-82.0631,1.956,6.92,1111122 
SCCF RECON,ioos:station:SCCF:11:1,2011-03-07T20:00:00Z,26.4679,-82.0631,1.943,7.31,1111122 
SCCF RECON,ioos:station:SCCF:11:1,2011-03-07T21:00:00Z,26.4679,-82.0631,1.859,7.51,1111122 
SCCF RECON,ioos:station:SCCF:11:1,2011-03-07T22:00:00Z,26.4679,-82.0631,1.729,7.92,1111122 
SCCF RECON,ioos:station:SCCF:11:1,2011-03-07T23:00:00Z,26.4679,-82.0631,1.62,7.8,1111122 
SCCF RECON,ioos:station:SCCF:11:1,2011-03-08T00:00:00Z,26.4679,-82.0631,1.521,7.64,1111122 
SCCF RECON,ioos:station:SCCF:11:1,2011-03-08T01:00:00Z,26.4679,-82.0631,1.45,7.46,1111122 
SCCF RECON,ioos:station:SCCF:11:1,2011-03-08T02:00:00Z,26.4679,-82.0631,1.434,7.27,1111122 
SCCF RECON,ioos:station:SCCF:11:1,2011-03-08T03:00:00Z,26.4679,-82.0631,1.49,7.49,1111122 
SCCF RECON,ioos:station:SCCF:11:1,2011-03-08T04:00:00Z,26.4679,-82.0631,1.6,6.97,1111122 
SCCF RECON,ioos:station:SCCF:11:1,2011-03-08T05:00:00Z,26.4679,-82.0631,1.728,6.94,1111122 
SCCF RECON,ioos:station:SCCF:11:1,2011-03-08T06:00:00Z,26.4679,-82.0631,1.805,7.13,1111122 
SCCF RECON,ioos:station:SCCF:11:1,2011-03-08T07:00:00Z,26.4679,-82.0631,1.864,7.08,1111122 
SCCF RECON,ioos:station:SCCF:11:1,2011-03-08T08:00:00Z,26.4679,-82.0631,1.88,6.93,1111122 
SCCF RECON,ioos:station:SCCF:11:1,2011-03-08T09:00:00Z,26.4679,-82.0631,1.83,6.94,1111122 
SCCF RECON,ioos:station:SCCF:11:1,2011-03-08T10:00:00Z,26.4679,-82.0631,1.74,7.0,1111122 
SCCF RECON,ioos:station:SCCF:11:1,2011-03-08T11:00:00Z,26.4679,-82.0631,1.667,6.74,1111122 
SCCF RECON,ioos:station:SCCF:11:1,2011-03-08T12:00:00Z,26.4679,-82.0631,1.601,6.51,1111122 
SCCF RECON,ioos:station:SCCF:11:1,2011-03-08T13:00:00Z,26.4679,-82.0631,1.58,6.45,1111122 
SCCF RECON,ioos:station:SCCF:11:1,2011-03-08T14:00:00Z,26.4679,-82.0631,1.61,6.45,1111122 
SCCF RECON,ioos:station:SCCF:11:1,2011-03-08T15:00:00Z,26.4679,-82.0631,1.7,6.65,1111122 
SCCF RECON,ioos:station:SCCF:11:1,2011-03-08T16:00:00Z,26.4679,-82.0631,1.802,7.16,1111122 
SCCF RECON,ioos:station:SCCF:11:1,2011-03-08T17:00:00Z,26.4679,-82.0631,1.899,7.2,1111122 
SCCF RECON,ioos:station:SCCF:11:1,2011-03-08T18:00:00Z,26.4679,-82.0631,1.97,7.3,1111122 
SCCF RECON,ioos:station:SCCF:11:1,2011-03-08T19:00:00Z,26.4679,-82.0631,2.011,7.05,1111122 
SCCF RECON,ioos:station:SCCF:11:1,2011-03-08T20:00:00Z,26.4679,-82.0631,2.01,7.32,1111122 
SCCF RECON,ioos:station:SCCF:11:1,2011-03-08T21:00:00Z,26.4679,-82.0631,1.94,7.86,1111122 
SCCF RECON,ioos:station:SCCF:11:1,2011-03-08T22:00:00Z,26.4679,-82.0631,1.83,8.14,1111122 
SCCF RECON,ioos:station:SCCF:11:1,2011-03-08T23:00:00Z,26.4679,-82.0631,1.719,7.91,1111122 
SCCF RECON,ioos:station:SCCF:11:1,2011-03-09T00:00:00Z,26.4679,-82.0631,1.59,7.81,1111122 
SCCF RECON,ioos:station:SCCF:11:1,2011-03-09T01:00:00Z,26.4679,-82.0631,1.485,7.63,1111122 
SCCF RECON,ioos:station:SCCF:11:1,2011-03-09T02:00:00Z,26.4679,-82.0631,1.404,7.46,1111122 
SCCF RECON,ioos:station:SCCF:11:1,2011-03-09T03:00:00Z,26.4679,-82.0631,1.37,7.27,1111122 
SCCF RECON,ioos:station:SCCF:11:1,2011-03-09T04:00:00Z,26.4679,-82.0631,1.43,6.88,1111122 
SCCF RECON,ioos:station:SCCF:11:1,2011-03-09T05:00:00Z,26.4679,-82.0631,1.57,6.94,1111122 
SCCF RECON,ioos:station:SCCF:11:1,2011-03-09T06:00:00Z,26.4679,-82.0631,1.712,6.89,1111122 
SCCF RECON,ioos:station:SCCF:11:1,2011-03-09T07:00:00Z,26.4679,-82.0631,1.8,6.97,1111122 
SCCF RECON,ioos:station:SCCF:11:1,2011-03-09T08:00:00Z,26.4679,-82.0631,1.84,6.96,1111122 
SCCF RECON,ioos:station:SCCF:11:1,2011-03-09T09:00:00Z,26.4679,-82.0631,1.84,6.79,1111122 
SCCF RECON,ioos:station:SCCF:11:1,2011-03-09T10:00:00Z,26.4679,-82.0631,1.805,6.78,1111122 
SCCF RECON,ioos:station:SCCF:11:1,2011-03-09T11:00:00Z,26.4679,-82.0631,1.741,6.86,1111122 
SCCF RECON,ioos:station:SCCF:11:1,2011-03-09T12:00:00Z,26.4679,-82.0631,1.73,6.66,1111122 
SCCF RECON,ioos:station:SCCF:11:1,2011-03-09T13:00:00Z,26.4679,-82.0631,1.73,6.33,1111122 
SCCF RECON,ioos:station:SCCF:11:1,2011-03-09T14:00:00Z,26.4679,-82.0631,1.728,6.47,1111122 
SCCF RECON,ioos:station:SCCF:11:1,2011-03-09T15:00:00Z,26.4679,-82.0631,1.747,6.56,1111122 
SCCF RECON,ioos:station:SCCF:11:1,2011-03-09T16:00:00Z,26.4679,-82.0631,1.809,6.95,1111122 
SCCF RECON,ioos:station:SCCF:11:1,2011-03-09T17:00:00Z,26.4679,-82.0631,1.895,7.17,1111122 
SCCF RECON,ioos:station:SCCF:11:1,2011-03-09T18:00:00Z,26.4679,-82.0631,1.992,7.27,1111122 
SCCF RECON,ioos:station:SCCF:11:1,2011-03-09T19:00:00Z,26.4679,-82.0631,2.07,7.19,1111122 
SCCF RECON,ioos:station:SCCF:11:1,2011-03-09T20:00:00Z,26.4679,-82.0631,2.123,7.25,1111122 
SCCF RECON,ioos:station:SCCF:11:1,2011-03-09T21:00:00Z,26.4679,-82.0631,2.124,7.19,1111122 
SCCF RECON,ioos:station:SCCF:11:1,2011-03-09T22:00:00Z,26.4679,-82.0631,2.05,7.22,1111122 
SCCF RECON,ioos:station:SCCF:11:1,2011-03-09T23:00:00Z,26.4679,-82.0631,1.921,7.99,1111122 
SCCF RECON,ioos:station:SCCF:11:1,2011-03-10T00:00:00Z,26.4679,-82.0631,1.79,7.5,1111122 
SCCF RECON,ioos:station:SCCF:11:1,2011-03-10T01:00:00Z,26.4679,-82.0631,1.66,7.38,1111122 
SCCF RECON,ioos:station:SCCF:11:1,2011-03-10T02:00:00Z,26.4679,-82.0631,1.56,7.19,1111122 
SCCF RECON,ioos:station:SCCF:11:1,2011-03-10T03:00:00Z,26.4679,-82.0631,1.51,6.99,1111122 
SCCF RECON,ioos:station:SCCF:11:1,2011-03-10T04:00:00Z,26.4679,-82.0631,1.53,6.87,1111122 
SCCF RECON,ioos:station:SCCF:11:1,2011-03-10T05:00:00Z,26.4679,-82.0631,1.62,6.74,1111122 
SCCF RECON,ioos:station:SCCF:11:1,2011-03-10T06:00:00Z,26.4679,-82.0631,1.72,6.57,1111122 
SCCF RECON,ioos:station:SCCF:11:1,2011-03-10T07:00:00Z,26.4679,-82.0631,1.79,6.15,1111122 
SCCF RECON,ioos:station:SCCF:11:1,2011-03-10T08:00:00Z,26.4679,-82.0631,1.85,6.45,1111122 
SCCF RECON,ioos:station:SCCF:11:1,2011-03-10T09:00:00Z,26.4679,-82.0631,1.887,6.48,1111122 
SCCF RECON,ioos:station:SCCF:11:1,2011-03-10T10:00:00Z,26.4679,-82.0631,1.822,6.53,1111122 
SCCF RECON,ioos:station:SCCF:11:1,2011-03-10T11:00:00Z,26.4679,-82.0631,1.8,6.33,1111122 
SCCF RECON,ioos:station:SCCF:11:1,2011-03-10T12:00:00Z,26.4679,-82.0631,1.81,6.09,1111122 
SCCF RECON,ioos:station:SCCF:11:1,2011-03-10T13:00:00Z,26.4679,-82.0631,1.78,6.17,1111122 
SCCF RECON,ioos:station:SCCF:11:1,2011-03-10T14:00:00Z,26.4679,-82.0631,1.767,6.36,1111122 
SCCF RECON,ioos:station:SCCF:11:1,2011-03-10T15:00:00Z,26.4679,-82.0631,1.779,6.45,1111122 
SCCF RECON,ioos:station:SCCF:11:1,2011-03-10T16:00:00Z,26.4679,-82.0631,1.72,6.44,1111122 
SCCF RECON,ioos:station:SCCF:11:1,2011-03-10T17:00:00Z,26.4679,-82.0631,1.68,6.37,1111122 
SCCF RECON,ioos:station:SCCF:11:1,2011-03-10T18:00:00Z,26.4679,-82.0631,1.829,6.5,1111122 
SCCF RECON,ioos:station:SCCF:11:1,2011-03-10T19:00:00Z,26.4679,-82.0631,1.98,6.57,1111122 
SCCF RECON,ioos:station:SCCF:11:1,2011-03-10T20:00:00Z,26.4679,-82.0631,2.048,6.57,1111122 
SCCF RECON,ioos:station:SCCF:11:1,2011-03-10T21:00:00Z,26.4679,-82.0631,2.035,6.68,1111122 
SCCF RECON,ioos:station:SCCF:11:1,2011-03-10T22:00:00Z,26.4679,-82.0631,1.951,6.81,1111122 
SCCF RECON,ioos:station:SCCF:11:1,2011-03-10T23:00:00Z,26.4679,-82.0631,1.929,6.85,1111122 
SCCF RECON,ioos:station:SCCF:11:1,2011-03-11T00:00:00Z,26.4679,-82.0631,1.802,6.84,1111122 
SCCF RECON,ioos:station:SCCF:11:1,2011-03-11T01:00:00Z,26.4679,-82.0631,1.683,6.3,1111122 
SCCF RECON,ioos:station:SCCF:11:1,2011-03-11T02:00:00Z,26.4679,-82.0631,1.591,6.24,1111122 
SCCF RECON,ioos:station:SCCF:11:1,2011-03-11T03:00:00Z,26.4679,-82.0631,1.499,6.16,1111122 
SCCF RECON,ioos:station:SCCF:11:1,2011-03-11T04:00:00Z,26.4679,-82.0631,1.429,6.19,1111122 
SCCF RECON,ioos:station:SCCF:11:1,2011-03-11T05:00:00Z,26.4679,-82.0631,1.361,6.13,1111122 
SCCF RECON,ioos:station:SCCF:11:1,2011-03-11T06:00:00Z,26.4679,-82.0631,1.359,6.05,1111122 
SCCF RECON,ioos:station:SCCF:11:1,2011-03-11T07:00:00Z,26.4679,-82.0631,1.425,6.16,1111122 
SCCF RECON,ioos:station:SCCF:11:1,2011-03-11T08:00:00Z,26.4679,-82.0631,1.56,6.07,1111122 
SCCF RECON,ioos:station:SCCF:11:1,2011-03-11T09:00:00Z,26.4679,-82.0631,1.63,6.19,1111122 
SCCF RECON,ioos:station:SCCF:11:1,2011-03-11T10:00:00Z,26.4679,-82.0631,1.636,6.18,1111122 
SCCF RECON,ioos:station:SCCF:11:1,2011-03-11T11:00:00Z,26.4679,-82.0631,1.649,6.19,1111122 
SCCF RECON,ioos:station:SCCF:11:1,2011-03-11T12:00:00Z,26.4679,-82.0631,1.6,6.26,1111122 
SCCF RECON,ioos:station:SCCF:11:1,2011-03-11T13:00:00Z,26.4679,-82.0631,1.569,6.32,1111122 
SCCF RECON,ioos:station:SCCF:11:1,2011-03-11T14:00:00Z,26.4679,-82.0631,1.531,6.38,1111122 
SCCF RECON,ioos:station:SCCF:11:1,2011-03-11T15:00:00Z,26.4679,-82.0631,1.568,6.59,1111122 
SCCF RECON,ioos:station:SCCF:11:1,2011-03-11T16:00:00Z,26.4679,-82.0631,1.667,6.61,1111122 
SCCF RECON,ioos:station:SCCF:11:1,2011-03-11T17:00:00Z,26.4679,-82.0631,1.704,6.87,1111122 
SCCF RECON,ioos:station:SCCF:11:1,2011-03-11T18:00:00Z,26.4679,-82.0631,1.757,7.77,1111122 
SCCF RECON,ioos:station:SCCF:11:1,2011-03-11T19:00:00Z,26.4679,-82.0631,1.817,7.56,1111122 
SCCF RECON,ioos:station:SCCF:11:1,2011-03-11T20:00:00Z,26.4679,-82.0631,1.85,7.41,1111122 
SCCF RECON,ioos:station:SCCF:11:1,2011-03-11T21:00:00Z,26.4679,-82.0631,1.845,7.37,1111122 
SCCF RECON,ioos:station:SCCF:11:1,2011-03-11T22:00:00Z,26.4679,-82.0631,1.805,7.94,1111122 
SCCF RECON,ioos:station:SCCF:11:1,2011-03-11T23:00:00Z,26.4679,-82.0631,1.765,8.04,1111122 
SCCF RECON,ioos:station:SCCF:11:1,2011-03-12T00:00:00Z,26.4679,-82.0631,1.75,7.9,1111122 
SCCF RECON,ioos:station:SCCF:11:1,2011-03-12T01:00:00Z,26.4679,-82.0631,1.687,7.63,1111122 
SCCF RECON,ioos:station:SCCF:11:1,2011-03-12T02:00:00Z,26.4679,-82.0631,1.59,7.56,1111122 
SCCF RECON,ioos:station:SCCF:11:1,2011-03-12T03:00:00Z,26.4679,-82.0631,1.49,7.33,1111122 
SCCF RECON,ioos:station:SCCF:11:1,2011-03-12T04:00:00Z,26.4679,-82.0631,1.394,7.33,1111122 
SCCF RECON,ioos:station:SCCF:11:1,2011-03-12T05:00:00Z,26.4679,-82.0631,1.321,7.22,1111122 
SCCF RECON,ioos:station:SCCF:11:1,2011-03-12T06:00:00Z,26.4679,-82.0631,1.3,6.93,1111122 
SCCF RECON,ioos:station:SCCF:11:1,2011-03-12T07:00:00Z,26.4679,-82.0631,1.318,7.0,1111122 
SCCF RECON,ioos:station:SCCF:11:1,2011-03-12T08:00:00Z,26.4679,-82.0631,1.4,6.86,1111122 
SCCF RECON,ioos:station:SCCF:11:1,2011-03-12T09:00:00Z,26.4679,-82.0631,1.492,7.07,1111122 
SCCF RECON,ioos:station:SCCF:11:1,2011-03-12T10:00:00Z,26.4679,-82.0631,1.565,7.15,1111122 
SCCF RECON,ioos:station:SCCF:11:1,2011-03-12T11:00:00Z,26.4679,-82.0631,1.598,7.08,1111122 
SCCF RECON,ioos:station:SCCF:11:1,2011-03-12T12:00:00Z,26.4679,-82.0631,1.61,7.08,1111122 
SCCF RECON,ioos:station:SCCF:11:1,2011-03-12T13:00:00Z,26.4679,-82.0631,1.608,7.12,1111122 
SCCF RECON,ioos:station:SCCF:11:1,2011-03-12T14:00:00Z,26.4679,-82.0631,1.606,7.17,1111122 
SCCF RECON,ioos:station:SCCF:11:1,2011-03-12T15:00:00Z,26.4679,-82.0631,1.624,7.16,1111122 
SCCF RECON,ioos:station:SCCF:11:1,2011-03-12T16:00:00Z,26.4679,-82.0631,1.659,7.45,1111122 
SCCF RECON,ioos:station:SCCF:11:1,2011-03-12T17:00:00Z,26.4679,-82.0631,1.7,7.81,1111122 
SCCF RECON,ioos:station:SCCF:11:1,2011-03-12T18:00:00Z,26.4679,-82.0631,1.768,7.59,1111122 
SCCF RECON,ioos:station:SCCF:11:1,2011-03-12T19:00:00Z,26.4679,-82.0631,1.82,7.68,1111122 
SCCF RECON,ioos:station:SCCF:11:1,2011-03-12T20:00:00Z,26.4679,-82.0631,1.869,7.84,1111122 
SCCF RECON,ioos:station:SCCF:11:1,2011-03-12T21:00:00Z,26.4679,-82.0631,1.919,7.85,1111122 
SCCF RECON,ioos:station:SCCF:11:1,2011-03-12T22:00:00Z,26.4679,-82.0631,1.944,7.8,1111122 
SCCF RECON,ioos:station:SCCF:11:1,2011-03-12T23:00:00Z,26.4679,-82.0631,1.938,8.47,1111122 
SCCF RECON,ioos:station:SCCF:11:1,2011-03-13T00:00:00Z,26.4679,-82.0631,1.871,8.72,1111122 
SCCF RECON,ioos:station:SCCF:11:1,2011-03-13T01:00:00Z,26.4679,-82.0631,1.79,8.8,1111122 
SCCF RECON,ioos:station:SCCF:11:1,2011-03-13T02:00:00Z,26.4679,-82.0631,1.72,8.41,1111122 
SCCF RECON,ioos:station:SCCF:11:1,2011-03-13T03:00:00Z,26.4679,-82.0631,1.631,8.28,1111122 
SCCF RECON,ioos:station:SCCF:11:1,2011-03-13T04:00:00Z,26.4679,-82.0631,1.55,8.22,1111122 
SCCF RECON,ioos:station:SCCF:11:1,2011-03-13T05:00:00Z,26.4679,-82.0631,1.47,8.05,1111122 
SCCF RECON,ioos:station:SCCF:11:1,2011-03-13T06:00:00Z,26.4679,-82.0631,1.399,7.81,1111122 
SCCF RECON,ioos:station:SCCF:11:1,2011-03-13T07:00:00Z,26.4679,-82.0631,1.36,7.73,1111122 
SCCF RECON,ioos:station:SCCF:11:1,2011-03-13T08:00:00Z,26.4679,-82.0631,1.39,7.57,1111122 
SCCF RECON,ioos:station:SCCF:11:1,2011-03-13T09:00:00Z,26.4679,-82.0631,1.489,7.45,1111122 
SCCF RECON,ioos:station:SCCF:11:1,2011-03-13T10:00:00Z,26.4679,-82.0631,1.58,7.34,1111122 
SCCF RECON,ioos:station:SCCF:11:1,2011-03-13T11:00:00Z,26.4679,-82.0631,1.66,7.46,1111122 
SCCF RECON,ioos:station:SCCF:11:1,2011-03-13T12:00:00Z,26.4679,-82.0631,1.73,7.52,1111122 
SCCF RECON,ioos:station:SCCF:11:1,2011-03-13T13:00:00Z,26.4679,-82.0631,1.78,7.58,1111122 
SCCF RECON,ioos:station:SCCF:11:1,2011-03-13T14:00:00Z,26.4679,-82.0631,1.8,7.63,1111122 
SCCF RECON,ioos:station:SCCF:11:1,2011-03-13T15:00:00Z,26.4679,-82.0631,1.803,7.73,1111122 
SCCF RECON,ioos:station:SCCF:11:1,2011-03-13T16:00:00Z,26.4679,-82.0631,1.798,7.92,1111122 
SCCF RECON,ioos:station:SCCF:11:1,2011-03-13T17:00:00Z,26.4679,-82.0631,1.795,7.93,1111122 
SCCF RECON,ioos:station:SCCF:11:1,2011-03-13T18:00:00Z,26.4679,-82.0631,1.81,7.89,1111122 
SCCF RECON,ioos:station:SCCF:11:1,2011-03-13T19:00:00Z,26.4679,-82.0631,1.85,7.96,1111122 
SCCF RECON,ioos:station:SCCF:11:1,2011-03-13T20:00:00Z,26.4679,-82.0631,1.891,8.42,1111122 
SCCF RECON,ioos:station:SCCF:11:1,2011-03-13T21:00:00Z,26.4679,-82.0631,1.927,9.67,1111122 
SCCF RECON,ioos:station:SCCF:11:1,2011-03-13T22:00:00Z,26.4679,-82.0631,1.94,8.87,1111122 
SCCF RECON,ioos:station:SCCF:11:1,2011-03-13T23:00:00Z,26.4679,-82.0631,1.96,8.8,1111122 
SCCF RECON,ioos:station:SCCF:11:1,2011-03-14T00:00:00Z,26.4679,-82.0631,1.96,8.63,1111122 
SCCF RECON,ioos:station:SCCF:11:1,2011-03-14T01:00:00Z,26.4679,-82.0631,1.91,9.76,1111122 
SCCF RECON,ioos:station:SCCF:11:1,2011-03-14T02:00:00Z,26.4679,-82.0631,1.848,9.16,1111122 
SCCF RECON,ioos:station:SCCF:11:1,2011-03-14T03:00:00Z,26.4679,-82.0631,1.76,8.65,1111122 
SCCF RECON,ioos:station:SCCF:11:1,2011-03-14T04:00:00Z,26.4679,-82.0631,1.66,8.51,1111122 
SCCF RECON,ioos:station:SCCF:11:1,2011-03-14T05:00:00Z,26.4679,-82.0631,1.56,8.21,1111122 
SCCF RECON,ioos:station:SCCF:11:1,2011-03-14T06:00:00Z,26.4679,-82.0631,1.45,8.07,1111122 
SCCF RECON,ioos:station:SCCF:11:1,2011-03-14T07:00:00Z,26.4679,-82.0631,1.361,7.78,1111122 
SCCF RECON,ioos:station:SCCF:11:1,2011-03-14T08:00:00Z,26.4679,-82.0631,1.32,7.61,1111122 
SCCF RECON,ioos:station:SCCF:11:1,2011-03-14T09:00:00Z,26.4679,-82.0631,1.35,7.46,1111122 
SCCF RECON,ioos:station:SCCF:11:1,2011-03-14T10:00:00Z,26.4679,-82.0631,1.45,7.38,1111122 
SCCF RECON,ioos:station:SCCF:11:1,2011-03-14T11:00:00Z,26.4679,-82.0631,1.55,7.48,1111122 
SCCF RECON,ioos:station:SCCF:11:1,2011-03-14T12:00:00Z,26.4679,-82.0631,1.64,7.22,1111122 
SCCF RECON,ioos:station:SCCF:11:1,2011-03-14T13:00:00Z,26.4679,-82.0631,1.73,7.24,1111122 
SCCF RECON,ioos:station:SCCF:11:1,2011-03-14T14:00:00Z,26.4679,-82.0631,1.805,7.46,1111122 
SCCF RECON,ioos:station:SCCF:11:1,2011-03-14T15:00:00Z,26.4679,-82.0631,1.843,7.51,1111122 
SCCF RECON,ioos:station:SCCF:11:1,2011-03-14T16:00:00Z,26.4679,-82.0631,1.846,7.51,1111122 
SCCF RECON,ioos:station:SCCF:11:1,2011-03-14T17:00:00Z,26.4679,-82.0631,1.82,7.61,1111122 
SCCF RECON,ioos:station:SCCF:11:1,2011-03-14T18:00:00Z,26.4679,-82.0631,1.791,7.67,1111122 
SCCF RECON,ioos:station:SCCF:11:1,2011-03-14T19:00:00Z,26.4679,-82.0631,1.789,7.75,1111122 
SCCF RECON,ioos:station:SCCF:11:1,2011-03-14T20:00:00Z,26.4679,-82.0631,1.83,7.82,1111122 
SCCF RECON,ioos:station:SCCF:11:1,2011-03-14T21:00:00Z,26.4679,-82.0631,1.86,8.86,1111122 
SCCF RECON,ioos:station:SCCF:11:1,2011-03-14T22:00:00Z,26.4679,-82.0631,1.901,9.51,1111122 
SCCF RECON,ioos:station:SCCF:11:1,2011-03-14T23:00:00Z,26.4679,-82.0631,1.94,8.66,1111122 
SCCF RECON,ioos:station:SCCF:11:1,2011-03-15T00:00:00Z,26.4679,-82.0631,1.98,8.2,1111122 
SCCF RECON,ioos:station:SCCF:11:1,2011-03-15T01:00:00Z,26.4679,-82.0631,2.01,7.81,1111122 
SCCF RECON,ioos:station:SCCF:11:1,2011-03-15T02:00:00Z,26.4679,-82.0631,2.005,7.7,1111122 
SCCF RECON,ioos:station:SCCF:11:1,2011-03-15T03:00:00Z,26.4679,-82.0631,1.932,9.2,1111122 
SCCF RECON,ioos:station:SCCF:11:1,2011-03-15T04:00:00Z,26.4679,-82.0631,1.82,8.43,1111122 
SCCF RECON,ioos:station:SCCF:11:1,2011-03-15T05:00:00Z,26.4679,-82.0631,1.706,7.99,1111122 
SCCF RECON,ioos:station:SCCF:11:1,2011-03-15T06:00:00Z,26.4679,-82.0631,1.583,7.86,1111122 
SCCF RECON,ioos:station:SCCF:11:1,2011-03-15T07:00:00Z,26.4679,-82.0631,1.46,7.67,1111122 
SCCF RECON,ioos:station:SCCF:11:1,2011-03-15T08:00:00Z,26.4679,-82.0631,1.35,7.37,1111122 
SCCF RECON,ioos:station:SCCF:11:1,2011-03-15T09:00:00Z,26.4679,-82.0631,1.3,7.15,1111122 
SCCF RECON,ioos:station:SCCF:11:1,2011-03-15T10:00:00Z,26.4679,-82.0631,1.34,6.92,1111122 
SCCF RECON,ioos:station:SCCF:11:1,2011-03-15T11:00:00Z,26.4679,-82.0631,1.45,7.1,1111122 
SCCF RECON,ioos:station:SCCF:11:1,2011-03-15T12:00:00Z,26.4679,-82.0631,1.584,7.14,1111122 
SCCF RECON,ioos:station:SCCF:11:1,2011-03-15T13:00:00Z,26.4679,-82.0631,1.71,7.16,1111122 
SCCF RECON,ioos:station:SCCF:11:1,2011-03-15T14:00:00Z,26.4679,-82.0631,1.807,7.3,1111122 
SCCF RECON,ioos:station:SCCF:11:1,2011-03-15T15:00:00Z,26.4679,-82.0631,1.88,7.46,1111122 
SCCF RECON,ioos:station:SCCF:11:1,2011-03-15T16:00:00Z,26.4679,-82.0631,1.909,7.47,1111122 